Showing default

COSMOS 2508, 40921

Orbit data source: Space-Track

COSMOS 2508, 40921 is a payload satellite owned by VVKO VKS (CIS) in LEO that was launched on Wed, 23 Sep 2015 UTC via an ROKOT launch vehicle from the Plesetsk Missile And Space Complex (PKMTR). Payload-class satellites include a variety of spacecraft equipped with specific instruments for various scientific and technological missions. These include communications satellites like Starlink; space stations such as the ISS; scientific satellites like the Hubble; Earth observation satellites from companies like Planet Labs, Umbra, and HawkEye 360; GPS; miniature CubeSats for education and research; and military/defense satellites.

Loading next visibility...
Identifier
40921, 2015-050B
Orbit
LEO
Last TLE update
4 hours ago
Origin
Manufacturer
Resehetnev ISS
Mission
Operational Defense Communications
Bus & Motor
STRELA-3M, Unknown motor
Mass
280 kg wet, 280 kg dry
Launch date (UTC)
2015-09-23 (10 years ago)
Launch vehicle
ROKOT
Launch site
Plesetsk Missile And Space Complex (PKMTR)
Object type
Payload
Rocket body
Debris
Shape & HBR
Cyl + 1 Ant, 7 m
Radar Cross Section
1.583 m², Large (>1 m²)

Expand to show TLE details & history

TLE from 4 hours ago
0 COSMOS 2508
1 40921U 15050B   25129.17843178  .00000063  00000-0  38361-3 0  9998
2 40921  82.4870 329.8410 0013745 181.9682 178.1346 12.42895720436686
Epoch: 2025-05-09T04:16Z
Definitive object data (Epoch: 2025-05-09T04:16:56.505Z)
Latitude
-0.00002°
Longitude
38.36726°
Altitude
1,507.868 km
Speed
7.106 km/s
True Right ascension
21h 59m 21s
True Declination
0° 00' 00"
Sunlit
Object was in daylight at TLE epoch
Visualization TLE readout
Latitude
24.54963°
Longitude
41.70029°
Altitude
1,507.098 km
Speed
7.109 km/s
Apparent Right ascension
00h 34m 05s
Apparent Declination
-5° 28' 47"
Sunlit
Object is in daylight
Visualization observer readout
Local Sidereal Time
16:25:51
Azimuth
72.513° E
Elevation
-27.808°
Doppler factor
1
Orbital elements
Apogee altitude
1,502.521 km
Perigee altitude
1,480.886 km
Semi-major axis
7,869.84 km
Eccentricity
0.0013745
Inclination
82.487°
RAAN
329.841°
Arg. of periapsis
181.9682°
True anomaly
178.13972°
Mean anomaly
178.1346°
Eccentric anomaly
178.13716°
Mean motion
3.10881 °/min
BSTAR
0.00038361
Orbital period
115.8 mins
Loading maneuver chart data...
Loading SW <> Apogee altitude chart data...
Loading historical data...
Loading historical data...
Loading historical data...
Loading historical data...
Loading historical data...
Loading historical data...
Loading historical data...
Other satellites on launch #50 in the year 2015 (2015-09-23 UTC)

COSMOS 2508 Visibility forecast

Observer location: undefined°, undefined°

Span
Click to sort rows by Start time (UTC) header in descending order
Start Az.
Max El. time (UTC)
Max El. Az.
Max El.
End time (UTC)
End Az.
8 mins2025-05-09 12:09:43.706Z107.591° ESE2025-05-09 12:13:43.706Z79.095° E15.36°2025-05-09 12:17:43.706Z49.544° ENE
16 mins2025-05-09 14:01:43.706Z182.843° SSW2025-05-09 14:09:43.706Z50.294° ENE44.858°2025-05-09 14:17:43.706Z8.799° NNE
10 mins2025-05-09 16:02:43.706Z259.838° W2025-05-09 16:07:43.706Z298.846° NW18.654°2025-05-09 16:12:43.706Z336.326° NNW
14 mins2025-05-10 00:13:43.706Z10.211° NNE2025-05-10 00:20:43.706Z80.021° E33.402°2025-05-10 00:27:43.706Z140.001° SSE
14 mins2025-05-10 02:10:43.706Z333.916° NNW2025-05-10 02:16:43.706Z278.621° WNW33.655°2025-05-10 02:24:43.706Z207.28° SW
|